Year,Month,Day,Hour,Minute,Value (Times are PST for temperature in C)
2013,04,27,00,00,14.20
2013,04,27,00,01,14.20
2013,04,27,00,02,14.20
2013,04,27,00,03,14.20
2013,04,27,00,04,14.20
2013,04,27,00,05,14.20
2013,04,27,00,06,14.20
2013,04,27,00,07,14.20
2013,04,27,00,08,14.10
2013,04,27,00,09,14.10
2013,04,27,00,10,14.10
2013,04,27,00,11,14.10
2013,04,27,00,12,14.10
2013,04,27,00,13,14.10
2013,04,27,00,14,14.10
2013,04,27,00,15,14.00
2013,04,27,00,16,14.00
2013,04,27,00,17,14.00
2013,04,27,00,18,13.90
2013,04,27,00,19,13.90
2013,04,27,00,20,13.90
2013,04,27,00,21,13.90
2013,04,27,00,22,13.90
2013,04,27,00,23,13.90
2013,04,27,00,24,13.90
2013,04,27,00,25,13.90
2013,04,27,00,26,13.90
2013,04,27,00,27,13.90
2013,04,27,00,28,13.90
2013,04,27,00,29,13.90
2013,04,27,00,30,13.90
2013,04,27,00,31,13.90
2013,04,27,00,32,13.90
2013,04,27,00,33,13.90
2013,04,27,00,34,13.90
2013,04,27,00,35,13.90
2013,04,27,00,36,13.80
2013,04,27,00,37,13.80
2013,04,27,00,38,13.80
2013,04,27,00,39,13.80
2013,04,27,00,40,13.80
2013,04,27,00,41,13.80
2013,04,27,00,42,13.80
2013,04,27,00,43,13.80
2013,04,27,00,44,13.80
2013,04,27,00,45,13.80
2013,04,27,00,46,13.70
2013,04,27,00,47,13.70
2013,04,27,00,48,13.70
2013,04,27,00,49,13.70
2013,04,27,00,50,13.70
2013,04,27,00,51,13.70
2013,04,27,00,52,13.70
2013,04,27,00,53,13.70
2013,04,27,00,54,13.70
2013,04,27,00,55,13.70
2013,04,27,00,56,13.60
2013,04,27,00,57,13.60
2013,04,27,00,58,13.60
2013,04,27,00,59,13.60
2013,04,27,01,00,13.60
2013,04,27,01,01,13.50
2013,04,27,01,02,13.50
2013,04,27,01,03,13.50
2013,04,27,01,04,13.50
2013,04,27,01,05,13.40
2013,04,27,01,06,13.40
2013,04,27,01,07,13.40
2013,04,27,01,08,13.40
2013,04,27,01,09,13.40
2013,04,27,01,10,13.40
2013,04,27,01,11,13.40
2013,04,27,01,12,13.30
2013,04,27,01,13,13.30
2013,04,27,01,14,13.30
2013,04,27,01,15,13.30
2013,04,27,01,16,13.30
2013,04,27,01,17,13.30
2013,04,27,01,18,13.30
2013,04,27,01,19,13.20
2013,04,27,01,20,13.20
2013,04,27,01,21,13.20
2013,04,27,01,22,13.20
2013,04,27,01,23,13.20
2013,04,27,01,24,13.20
2013,04,27,01,25,13.20
2013,04,27,01,26,13.20
2013,04,27,01,27,13.10
2013,04,27,01,28,13.10
2013,04,27,01,29,13.10
2013,04,27,01,30,13.10
2013,04,27,01,31,13.00
2013,04,27,01,32,13.00
2013,04,27,01,33,13.00
2013,04,27,01,34,13.00
2013,04,27,01,35,12.90
2013,04,27,01,36,12.90
2013,04,27,01,37,12.90
2013,04,27,01,38,12.80
2013,04,27,01,39,12.80
2013,04,27,01,40,12.80
2013,04,27,01,41,12.80
2013,04,27,01,42,12.80
2013,04,27,01,43,12.80
2013,04,27,01,44,12.80
2013,04,27,01,45,12.70
2013,04,27,01,46,12.70
2013,04,27,01,47,12.70
2013,04,27,01,48,12.70
2013,04,27,01,49,12.70
2013,04,27,01,50,12.70
2013,04,27,01,51,12.70
2013,04,27,01,52,12.70
2013,04,27,01,53,12.70
2013,04,27,01,54,12.70
2013,04,27,01,55,12.70
2013,04,27,01,56,12.70
2013,04,27,01,57,12.60
2013,04,27,01,58,12.60
2013,04,27,01,59,12.60
2013,04,27,02,00,12.60
2013,04,27,02,01,12.60
2013,04,27,02,02,12.60
2013,04,27,02,03,12.60
2013,04,27,02,04,12.50
2013,04,27,02,05,12.50
2013,04,27,02,06,12.50
2013,04,27,02,07,12.40
2013,04,27,02,08,12.40
2013,04,27,02,09,12.40
2013,04,27,02,10,12.40
2013,04,27,02,11,12.30
2013,04,27,02,12,12.30
2013,04,27,02,13,12.30
2013,04,27,02,14,12.30
2013,04,27,02,15,12.20
2013,04,27,02,16,12.20
2013,04,27,02,17,12.20
2013,04,27,02,18,12.20
2013,04,27,02,19,12.20
2013,04,27,02,20,12.20
2013,04,27,02,21,12.20
2013,04,27,02,22,12.10
2013,04,27,02,23,12.10
2013,04,27,02,24,12.10
2013,04,27,02,25,12.10
2013,04,27,02,26,12.00
2013,04,27,02,27,12.00
2013,04,27,02,28,12.00
2013,04,27,02,29,12.00
2013,04,27,02,30,11.90
2013,04,27,02,31,11.90
2013,04,27,02,32,11.90
2013,04,27,02,33,11.90
2013,04,27,02,34,11.90
2013,04,27,02,35,11.90
2013,04,27,02,36,11.90
2013,04,27,02,37,11.80
2013,04,27,02,38,11.80
2013,04,27,02,39,11.80
2013,04,27,02,40,11.80
2013,04,27,02,41,11.80
2013,04,27,02,42,11.80
2013,04,27,02,43,11.80
2013,04,27,02,44,11.70
2013,04,27,02,45,11.70
2013,04,27,02,46,11.80
2013,04,27,02,47,11.80
2013,04,27,02,48,11.80
2013,04,27,02,49,11.80
2013,04,27,02,50,11.80
2013,04,27,02,51,11.80
2013,04,27,02,52,11.80
2013,04,27,02,53,11.80
2013,04,27,02,54,11.80
2013,04,27,02,55,11.80
2013,04,27,02,56,11.80
2013,04,27,02,57,11.80
2013,04,27,02,58,11.80
2013,04,27,02,59,11.80
2013,04,27,03,00,11.80
2013,04,27,03,01,11.80
2013,04,27,03,02,11.80
2013,04,27,03,03,11.80
2013,04,27,03,04,11.80
2013,04,27,03,05,11.80
2013,04,27,03,06,11.80
2013,04,27,03,07,11.80
2013,04,27,03,08,11.80
2013,04,27,03,09,11.80
2013,04,27,03,10,11.80
2013,04,27,03,11,11.80
2013,04,27,03,12,11.70
2013,04,27,03,13,11.70
2013,04,27,03,14,11.70
2013,04,27,03,15,11.70
2013,04,27,03,16,11.70
2013,04,27,03,17,11.70
2013,04,27,03,18,11.70
2013,04,27,03,19,11.70
2013,04,27,03,20,11.70
2013,04,27,03,21,11.70
2013,04,27,03,22,11.70
2013,04,27,03,23,11.70
2013,04,27,03,24,11.70
2013,04,27,03,25,11.60
2013,04,27,03,26,11.60
2013,04,27,03,27,11.60
2013,04,27,03,28,11.60
2013,04,27,03,29,11.60
2013,04,27,03,30,11.60
2013,04,27,03,31,11.60
2013,04,27,03,32,11.60
2013,04,27,03,33,11.60
2013,04,27,03,34,11.60
2013,04,27,03,35,11.60
2013,04,27,03,36,11.60
2013,04,27,03,37,11.60
2013,04,27,03,38,11.60
2013,04,27,03,39,11.60
2013,04,27,03,40,11.50
2013,04,27,03,41,11.50
2013,04,27,03,42,11.50
2013,04,27,03,43,11.50
2013,04,27,03,44,11.50
2013,04,27,03,45,11.50
2013,04,27,03,46,11.40
2013,04,27,03,47,11.40
2013,04,27,03,48,11.40
2013,04,27,03,49,11.40
2013,04,27,03,50,11.40
2013,04,27,03,51,11.40
2013,04,27,03,52,11.40
2013,04,27,03,53,11.40
2013,04,27,03,54,11.40
2013,04,27,03,55,11.40
2013,04,27,03,56,11.40
2013,04,27,03,57,11.30
2013,04,27,03,58,11.30
2013,04,27,03,59,11.40
2013,04,27,04,00,11.40
2013,04,27,04,01,11.40
2013,04,27,04,02,11.40
2013,04,27,04,03,11.40
2013,04,27,04,04,11.40
2013,04,27,04,05,11.40
2013,04,27,04,06,11.30
2013,04,27,04,07,11.30
2013,04,27,04,08,11.30
2013,04,27,04,09,11.30
2013,04,27,04,10,11.30
2013,04,27,04,11,11.30
2013,04,27,04,12,11.30
2013,04,27,04,13,11.30
2013,04,27,04,14,11.30
2013,04,27,04,15,11.30
2013,04,27,04,16,11.20
2013,04,27,04,17,11.20
2013,04,27,04,18,11.20
2013,04,27,04,19,11.20
2013,04,27,04,20,11.20
2013,04,27,04,21,11.20
2013,04,27,04,22,11.20
2013,04,27,04,23,11.20
2013,04,27,04,24,11.20
2013,04,27,04,25,11.20
2013,04,27,04,26,11.20
2013,04,27,04,27,11.20
2013,04,27,04,28,11.20
2013,04,27,04,29,11.20
2013,04,27,04,30,11.20
2013,04,27,04,31,11.20
2013,04,27,04,32,11.30
2013,04,27,04,33,11.30
2013,04,27,04,34,11.30
2013,04,27,04,35,11.30
2013,04,27,04,36,11.30
2013,04,27,04,37,11.30
2013,04,27,04,38,11.30
2013,04,27,04,39,11.40
2013,04,27,04,40,11.40
2013,04,27,04,41,11.50
2013,04,27,04,42,11.50
2013,04,27,04,43,11.50
2013,04,27,04,44,11.60
2013,04,27,04,45,11.60
2013,04,27,04,46,11.60
2013,04,27,04,47,11.50
2013,04,27,04,48,11.50
2013,04,27,04,49,11.50
2013,04,27,04,50,11.50
2013,04,27,04,51,11.50
2013,04,27,04,52,11.50
2013,04,27,04,53,11.50
2013,04,27,04,54,11.50
2013,04,27,04,55,11.50
2013,04,27,04,56,11.50
2013,04,27,04,57,11.40
2013,04,27,04,58,11.40
2013,04,27,04,59,11.40
2013,04,27,05,00,11.40
2013,04,27,05,01,11.40
2013,04,27,05,02,11.40
2013,04,27,05,03,11.30
2013,04,27,05,04,11.30
2013,04,27,05,05,11.30
2013,04,27,05,06,11.30
2013,04,27,05,07,11.30
2013,04,27,05,08,11.30
2013,04,27,05,09,11.30
2013,04,27,05,10,11.20
2013,04,27,05,11,11.20
2013,04,27,05,12,11.20
2013,04,27,05,13,11.20
2013,04,27,05,14,11.20
2013,04,27,05,15,11.20
2013,04,27,05,16,11.20
2013,04,27,05,17,11.10
2013,04,27,05,18,11.10
2013,04,27,05,19,11.10
2013,04,27,05,20,11.10
2013,04,27,05,21,11.10
2013,04,27,05,22,11.20
2013,04,27,05,23,11.20
2013,04,27,05,24,11.20
2013,04,27,05,25,11.20
2013,04,27,05,26,11.20
2013,04,27,05,27,11.20
2013,04,27,05,28,11.20
2013,04,27,05,29,11.20
2013,04,27,05,30,11.20
2013,04,27,05,31,11.10
2013,04,27,05,32,11.10
2013,04,27,05,33,11.10
2013,04,27,05,34,11.10
2013,04,27,05,35,11.10
2013,04,27,05,36,11.10
2013,04,27,05,37,11.10
2013,04,27,05,38,11.10
2013,04,27,05,39,11.10
2013,04,27,05,40,11.10
2013,04,27,05,41,11.10
2013,04,27,05,42,11.20
2013,04,27,05,43,11.20
2013,04,27,05,44,11.20
2013,04,27,05,45,11.20
2013,04,27,05,46,11.20
2013,04,27,05,47,11.20
2013,04,27,05,48,11.20
2013,04,27,05,49,11.20
2013,04,27,05,50,11.20
2013,04,27,05,51,11.20
2013,04,27,05,52,11.10
2013,04,27,05,53,11.10
2013,04,27,05,54,11.00
2013,04,27,05,55,11.00
2013,04,27,05,56,10.90
2013,04,27,05,57,10.80
2013,04,27,05,58,10.80
2013,04,27,05,59,10.70
2013,04,27,06,00,10.70
2013,04,27,06,01,10.70
2013,04,27,06,02,10.70
2013,04,27,06,03,10.60
2013,04,27,06,04,10.60
2013,04,27,06,05,10.60
2013,04,27,06,06,10.60
2013,04,27,06,07,10.60
2013,04,27,06,08,10.50
2013,04,27,06,09,10.50
2013,04,27,06,10,10.50
2013,04,27,06,11,10.50
2013,04,27,06,12,10.50
2013,04,27,06,13,10.60
2013,04,27,06,14,10.60
2013,04,27,06,15,10.60
2013,04,27,06,16,10.60
2013,04,27,06,17,10.60
2013,04,27,06,18,10.50
2013,04,27,06,19,10.50
2013,04,27,06,20,10.40
2013,04,27,06,21,10.40
2013,04,27,06,22,10.30
2013,04,27,06,23,10.30
2013,04,27,06,24,10.20
2013,04,27,06,25,10.20
2013,04,27,06,26,10.20
2013,04,27,06,27,10.20
2013,04,27,06,28,10.20
2013,04,27,06,29,10.20
2013,04,27,06,30,10.10
2013,04,27,06,31,10.10
2013,04,27,06,32,10.00
2013,04,27,06,33,10.00
2013,04,27,06,34,9.90
2013,04,27,06,35,9.90
2013,04,27,06,36,9.80
2013,04,27,06,37,9.80
2013,04,27,06,38,9.70
2013,04,27,06,39,9.70
2013,04,27,06,40,9.70
2013,04,27,06,41,9.60
2013,04,27,06,42,9.60
2013,04,27,06,43,9.60
2013,04,27,06,44,9.60
2013,04,27,06,45,9.60
2013,04,27,06,46,9.60
2013,04,27,06,47,9.50
2013,04,27,06,48,9.50
2013,04,27,06,49,9.50
2013,04,27,06,50,9.50
2013,04,27,06,51,9.50
2013,04,27,06,52,9.50
2013,04,27,06,53,9.40
2013,04,27,06,54,9.40
2013,04,27,06,55,9.40
2013,04,27,06,56,9.40
2013,04,27,06,57,9.40
2013,04,27,06,58,9.40
2013,04,27,06,59,9.40
2013,04,27,07,00,9.40
2013,04,27,07,01,9.40
2013,04,27,07,02,9.40
2013,04,27,07,03,9.50
2013,04,27,07,04,9.50
2013,04,27,07,05,9.50
2013,04,27,07,06,9.50
2013,04,27,07,07,9.50
2013,04,27,07,08,9.60
2013,04,27,07,09,9.60
2013,04,27,07,10,9.60
2013,04,27,07,11,9.60
2013,04,27,07,12,9.60
2013,04,27,07,13,9.70
2013,04,27,07,14,9.70
2013,04,27,07,15,9.70
2013,04,27,07,16,9.70
2013,04,27,07,17,9.70
2013,04,27,07,18,9.80
2013,04,27,07,19,9.80
2013,04,27,07,20,9.80
2013,04,27,07,21,9.80
2013,04,27,07,22,9.80
2013,04,27,07,23,9.90
2013,04,27,07,24,9.90
2013,04,27,07,25,9.90
2013,04,27,07,26,9.90
2013,04,27,07,27,9.90
2013,04,27,07,28,9.90
2013,04,27,07,29,10.00
2013,04,27,07,30,10.00
2013,04,27,07,31,10.00
2013,04,27,07,32,10.00
2013,04,27,07,33,10.00
2013,04,27,07,34,10.10
2013,04,27,07,35,10.10
2013,04,27,07,36,10.10
2013,04,27,07,37,10.10
2013,04,27,07,38,10.10
2013,04,27,07,39,10.10
2013,04,27,07,40,10.10
2013,04,27,07,41,10.20
2013,04,27,07,42,10.20
2013,04,27,07,43,10.20
2013,04,27,07,44,10.30
2013,04,27,07,45,10.30
2013,04,27,07,46,10.30
2013,04,27,07,47,10.40
2013,04,27,07,48,10.40
2013,04,27,07,49,10.40
2013,04,27,07,50,10.40
2013,04,27,07,51,10.50
2013,04,27,07,52,10.50
2013,04,27,07,53,10.50
2013,04,27,07,54,10.50
2013,04,27,07,55,10.60
2013,04,27,07,56,10.60
2013,04,27,07,57,10.60
2013,04,27,07,58,10.60
2013,04,27,07,59,10.60
2013,04,27,08,00,10.70
2013,04,27,08,01,10.70
2013,04,27,08,02,10.70
2013,04,27,08,03,10.80
2013,04,27,08,04,10.80
2013,04,27,08,05,10.80
2013,04,27,08,06,10.80
2013,04,27,08,07,10.90
2013,04,27,08,08,10.90
2013,04,27,08,09,10.90
2013,04,27,08,10,10.90
2013,04,27,08,11,11.00
2013,04,27,08,12,11.00
2013,04,27,08,13,11.00
2013,04,27,08,14,11.00
2013,04,27,08,15,11.10
2013,04,27,08,16,11.10
2013,04,27,08,17,11.10
2013,04,27,08,18,11.10
2013,04,27,08,19,11.10
2013,04,27,08,20,11.10
2013,04,27,08,21,11.10
2013,04,27,08,22,11.20
2013,04,27,08,23,11.20
2013,04,27,08,24,11.20
2013,04,27,08,25,11.30
2013,04,27,08,26,11.30
2013,04,27,08,27,11.30
2013,04,27,08,28,11.40
2013,04,27,08,29,11.40
2013,04,27,08,30,11.50
2013,04,27,08,31,11.50
2013,04,27,08,32,11.60
2013,04,27,08,33,11.60
2013,04,27,08,34,11.70
2013,04,27,08,35,11.70
2013,04,27,08,36,11.80
2013,04,27,08,37,11.80
2013,04,27,08,38,11.80
2013,04,27,08,39,11.80
2013,04,27,08,40,11.80
2013,04,27,08,41,11.90
2013,04,27,08,42,11.90
2013,04,27,08,43,11.90
2013,04,27,08,44,11.90
2013,04,27,08,45,11.90
2013,04,27,08,46,12.00
2013,04,27,08,47,12.00
2013,04,27,08,48,12.00
2013,04,27,08,49,12.10
2013,04,27,08,50,12.10
2013,04,27,08,51,12.10
2013,04,27,08,52,12.10
2013,04,27,08,53,12.10
2013,04,27,08,54,12.10
2013,04,27,08,55,12.10
2013,04,27,08,56,12.10
2013,04,27,08,57,12.10
2013,04,27,08,58,12.20
2013,04,27,08,59,12.10
2013,04,27,09,00,12.10
2013,04,27,09,01,12.10
2013,04,27,09,02,12.10
2013,04,27,09,03,12.10
2013,04,27,09,04,12.10
2013,04,27,09,05,12.10
2013,04,27,09,06,12.10
2013,04,27,09,07,12.10
2013,04,27,09,08,12.10
2013,04,27,09,09,12.10
2013,04,27,09,10,12.10
2013,04,27,09,11,12.10
2013,04,27,09,12,12.10
2013,04,27,09,13,12.10
2013,04,27,09,14,12.00
2013,04,27,09,15,12.00
2013,04,27,09,16,12.00
2013,04,27,09,17,12.00
2013,04,27,09,18,12.00
2013,04,27,09,19,12.00
2013,04,27,09,20,12.00
2013,04,27,09,21,12.00
2013,04,27,09,22,12.00
2013,04,27,09,23,12.00
2013,04,27,09,24,12.00
2013,04,27,09,25,11.90
2013,04,27,09,26,11.90
2013,04,27,09,27,11.90
2013,04,27,09,28,11.90
2013,04,27,09,29,11.90
2013,04,27,09,30,11.90
2013,04,27,09,31,11.90
2013,04,27,09,32,11.90
2013,04,27,09,33,11.90
2013,04,27,09,34,12.00
2013,04,27,09,35,12.00
2013,04,27,09,36,12.00
2013,04,27,09,37,12.00
2013,04,27,09,38,12.00
2013,04,27,09,39,12.10
2013,04,27,09,40,12.10
2013,04,27,09,41,12.10
2013,04,27,09,42,12.10
2013,04,27,09,43,12.10
2013,04,27,09,44,12.20
2013,04,27,09,45,12.20
2013,04,27,09,46,12.20
2013,04,27,09,47,12.20
2013,04,27,09,48,12.20
2013,04,27,09,49,12.20
2013,04,27,09,50,12.20
2013,04,27,09,51,12.20
2013,04,27,09,52,12.30
2013,04,27,09,53,12.30
2013,04,27,09,54,12.40
2013,04,27,09,55,12.40
2013,04,27,09,56,12.40
2013,04,27,09,57,12.50
2013,04,27,09,58,12.50
2013,04,27,09,59,12.50
2013,04,27,10,00,12.50
2013,04,27,10,01,12.50
2013,04,27,10,02,12.50
2013,04,27,10,03,12.50
2013,04,27,10,04,12.50
2013,04,27,10,05,12.50
2013,04,27,10,06,12.50
2013,04,27,10,07,12.50
2013,04,27,10,08,12.50
2013,04,27,10,09,12.50
2013,04,27,10,10,12.50
2013,04,27,10,11,12.40
2013,04,27,10,12,12.40
2013,04,27,10,13,12.40
2013,04,27,10,14,12.40
2013,04,27,10,15,12.40
2013,04,27,10,16,12.40
2013,04,27,10,17,12.40
2013,04,27,10,18,12.40
2013,04,27,10,19,12.30
2013,04,27,10,20,12.30
2013,04,27,10,21,12.20
2013,04,27,10,22,12.20
2013,04,27,10,23,12.20
2013,04,27,10,24,12.20
2013,04,27,10,25,12.20
2013,04,27,10,26,12.10
2013,04,27,10,27,12.10
2013,04,27,10,28,12.10
2013,04,27,10,29,12.00
2013,04,27,10,30,11.90
2013,04,27,10,31,11.90
2013,04,27,10,32,11.90
2013,04,27,10,33,11.90
2013,04,27,10,34,11.90
2013,04,27,10,35,11.80
2013,04,27,10,36,11.80
2013,04,27,10,37,11.80
2013,04,27,10,38,11.80
2013,04,27,10,39,11.70
2013,04,27,10,40,11.70
2013,04,27,10,41,11.70
2013,04,27,10,42,11.70
2013,04,27,10,43,11.60
2013,04,27,10,44,11.60
2013,04,27,10,45,11.60
2013,04,27,10,46,11.60
2013,04,27,10,47,11.60
2013,04,27,10,48,11.60
2013,04,27,10,49,11.60
2013,04,27,10,50,11.60
2013,04,27,10,51,11.60
2013,04,27,10,52,11.60
2013,04,27,10,53,11.60
2013,04,27,10,54,11.50
2013,04,27,10,55,11.50
2013,04,27,10,56,11.40
2013,04,27,10,57,11.40
2013,04,27,10,58,11.40
2013,04,27,10,59,11.30
2013,04,27,11,00,11.30
2013,04,27,11,01,11.20
2013,04,27,11,02,11.20
2013,04,27,11,03,11.10
2013,04,27,11,04,11.10
2013,04,27,11,05,11.10
2013,04,27,11,06,11.00
2013,04,27,11,07,10.90
2013,04,27,11,08,10.90
2013,04,27,11,09,10.90
2013,04,27,11,10,10.90
2013,04,27,11,11,10.90
2013,04,27,11,12,11.00
2013,04,27,11,13,11.00
2013,04,27,11,14,11.10
2013,04,27,11,15,11.10
2013,04,27,11,16,11.10
2013,04,27,11,17,11.10
2013,04,27,11,18,11.20
2013,04,27,11,19,11.20
2013,04,27,11,20,11.20
2013,04,27,11,21,11.20
2013,04,27,11,22,11.30
2013,04,27,11,23,11.30
2013,04,27,11,24,11.30
2013,04,27,11,25,11.30
2013,04,27,11,26,11.30
2013,04,27,11,27,11.30
2013,04,27,11,28,11.30
2013,04,27,11,29,11.40
2013,04,27,11,30,11.40
2013,04,27,11,31,11.40
2013,04,27,11,32,11.40
2013,04,27,11,33,11.50
2013,04,27,11,34,11.50
2013,04,27,11,35,11.50
2013,04,27,11,36,11.50
2013,04,27,11,37,11.40
2013,04,27,11,38,11.40
2013,04,27,11,39,11.40
2013,04,27,11,40,11.40
2013,04,27,11,41,11.40
2013,04,27,11,42,11.40
2013,04,27,11,43,11.40
2013,04,27,11,44,11.40
2013,04,27,11,45,11.30
2013,04,27,11,46,11.30
2013,04,27,11,47,11.30
2013,04,27,11,48,11.30
2013,04,27,11,49,11.30
2013,04,27,11,50,11.30
2013,04,27,11,51,11.30
2013,04,27,11,52,11.30
2013,04,27,11,53,11.30
2013,04,27,11,54,11.30
2013,04,27,11,55,11.30
2013,04,27,11,56,11.30
2013,04,27,11,57,11.30
2013,04,27,11,58,11.30
2013,04,27,11,59,11.30
2013,04,27,12,00,11.30
2013,04,27,12,01,11.30
2013,04,27,12,02,11.30
2013,04,27,12,03,11.30
2013,04,27,12,04,11.30
2013,04,27,12,05,11.30
2013,04,27,12,06,11.30
2013,04,27,12,07,11.30
2013,04,27,12,08,11.30
2013,04,27,12,09,11.40
2013,04,27,12,10,11.40
2013,04,27,12,11,11.40
2013,04,27,12,12,11.50
2013,04,27,12,13,11.50
2013,04,27,12,14,11.60
2013,04,27,12,15,11.60
2013,04,27,12,16,11.60
2013,04,27,12,17,11.60
2013,04,27,12,18,11.60
2013,04,27,12,19,11.60
2013,04,27,12,20,11.60
2013,04,27,12,21,11.70
2013,04,27,12,22,11.70
2013,04,27,12,23,11.70
2013,04,27,12,24,11.60
2013,04,27,12,25,11.60
2013,04,27,12,26,11.60
2013,04,27,12,27,11.60
2013,04,27,12,28,11.60
2013,04,27,12,29,11.60
2013,04,27,12,30,11.60
2013,04,27,12,31,11.60
2013,04,27,12,32,11.60
2013,04,27,12,33,11.60
2013,04,27,12,34,11.60
2013,04,27,12,35,11.60
2013,04,27,12,36,11.60
2013,04,27,12,37,11.60
2013,04,27,12,38,11.70
2013,04,27,12,39,11.70
2013,04,27,12,40,11.70
2013,04,27,12,41,11.70
2013,04,27,12,42,11.70
2013,04,27,12,43,11.60
2013,04,27,12,44,11.60
2013,04,27,12,45,11.60
2013,04,27,12,46,11.70
2013,04,27,12,47,11.70
2013,04,27,12,48,11.70
2013,04,27,12,49,11.70
2013,04,27,12,50,11.70
2013,04,27,12,51,11.70
2013,04,27,12,52,11.70
2013,04,27,12,53,11.70
2013,04,27,12,54,11.70
2013,04,27,12,55,11.60
2013,04,27,12,56,11.60
2013,04,27,12,57,11.60
2013,04,27,12,58,11.60
2013,04,27,12,59,11.50
2013,04,27,13,00,11.50
2013,04,27,13,01,11.50
2013,04,27,13,02,11.50
2013,04,27,13,03,11.50
2013,04,27,13,04,11.50
2013,04,27,13,05,11.50
2013,04,27,13,06,11.50
2013,04,27,13,07,11.40
2013,04,27,13,08,11.40
2013,04,27,13,09,11.40
2013,04,27,13,10,11.40
2013,04,27,13,11,11.30
2013,04,27,13,12,11.20
2013,04,27,13,13,11.20
2013,04,27,13,14,11.10
2013,04,27,13,15,11.10
2013,04,27,13,16,11.00
2013,04,27,13,17,10.90
2013,04,27,13,18,10.90
2013,04,27,13,19,10.80
2013,04,27,13,20,10.80
2013,04,27,13,21,10.80
2013,04,27,13,22,10.80
2013,04,27,13,23,10.80
2013,04,27,13,24,10.70
2013,04,27,13,25,10.70
2013,04,27,13,26,10.60
2013,04,27,13,27,10.50
2013,04,27,13,28,10.40
2013,04,27,13,29,10.40
2013,04,27,13,30,10.40
2013,04,27,13,31,10.40
2013,04,27,13,32,10.40
2013,04,27,13,33,10.40
2013,04,27,13,34,10.50
2013,04,27,13,35,10.50
2013,04,27,13,36,10.40
2013,04,27,13,37,10.40
2013,04,27,13,38,10.30
2013,04,27,13,39,10.20
2013,04,27,13,40,10.20
2013,04,27,13,41,10.10
2013,04,27,13,42,10.10
2013,04,27,13,43,10.10
2013,04,27,13,44,10.10
2013,04,27,13,45,10.10
2013,04,27,13,46,10.10
2013,04,27,13,47,10.10
2013,04,27,13,48,10.00
2013,04,27,13,49,10.00
2013,04,27,13,50,10.00
2013,04,27,13,51,10.00
2013,04,27,13,52,10.00
2013,04,27,13,53,10.00
2013,04,27,13,54,10.00
2013,04,27,13,55,10.10
2013,04,27,13,56,10.10
2013,04,27,13,57,10.20
2013,04,27,13,58,10.20
2013,04,27,13,59,10.30
2013,04,27,14,00,10.40
2013,04,27,14,01,10.40
2013,04,27,14,02,10.50
2013,04,27,14,03,10.50
2013,04,27,14,04,10.60
2013,04,27,14,05,10.60
2013,04,27,14,06,10.70
2013,04,27,14,07,10.70
2013,04,27,14,08,10.80
2013,04,27,14,09,10.80
2013,04,27,14,10,10.80
2013,04,27,14,11,10.80
2013,04,27,14,12,10.80
2013,04,27,14,13,10.80
2013,04,27,14,14,10.80
2013,04,27,14,15,10.90
2013,04,27,14,16,10.90
2013,04,27,14,17,11.00
2013,04,27,14,18,11.00
2013,04,27,14,19,11.10
2013,04,27,14,20,11.10
2013,04,27,14,21,11.00
2013,04,27,14,22,11.00
2013,04,27,14,23,11.00
2013,04,27,14,24,11.10
2013,04,27,14,25,11.10
2013,04,27,14,26,11.20
2013,04,27,14,27,11.20
2013,04,27,14,28,11.30
2013,04,27,14,29,11.30
2013,04,27,14,30,11.40
2013,04,27,14,31,11.40
2013,04,27,14,32,11.30
2013,04,27,14,33,11.30
2013,04,27,14,34,11.30
2013,04,27,14,35,11.30
2013,04,27,14,36,11.30
2013,04,27,14,37,11.30
2013,04,27,14,38,11.30
2013,04,27,14,39,11.40
2013,04,27,14,40,11.40
2013,04,27,14,41,11.30
2013,04,27,14,42,11.30
2013,04,27,14,43,11.30
2013,04,27,14,44,11.30
2013,04,27,14,45,11.30
2013,04,27,14,46,11.30
2013,04,27,14,47,11.30
2013,04,27,14,48,11.30
2013,04,27,14,49,11.30
2013,04,27,14,50,11.30
2013,04,27,14,51,11.30
2013,04,27,14,52,11.40
2013,04,27,14,53,11.50
2013,04,27,14,54,11.50
2013,04,27,14,55,11.50
2013,04,27,14,56,11.40
2013,04,27,14,57,11.40
2013,04,27,14,58,11.40
2013,04,27,14,59,11.40
2013,04,27,15,00,11.30
2013,04,27,15,01,11.30
2013,04,27,15,02,11.40
2013,04,27,15,03,11.40
2013,04,27,15,04,11.40
2013,04,27,15,05,11.40
2013,04,27,15,06,11.50
2013,04,27,15,07,11.60
2013,04,27,15,08,11.60
2013,04,27,15,09,11.50
2013,04,27,15,10,11.50
2013,04,27,15,11,11.40
2013,04,27,15,12,11.40
2013,04,27,15,13,11.40
2013,04,27,15,14,11.40
2013,04,27,15,15,11.40
2013,04,27,15,16,11.30
2013,04,27,15,17,11.30
2013,04,27,15,18,11.30
2013,04,27,15,19,11.40
2013,04,27,15,20,11.40
2013,04,27,15,21,11.40
2013,04,27,15,22,11.40
2013,04,27,15,23,11.40
2013,04,27,15,24,11.30
2013,04,27,15,25,11.30
2013,04,27,15,26,11.30
2013,04,27,15,27,11.40
2013,04,27,15,28,11.30
2013,04,27,15,29,11.30
2013,04,27,15,30,11.30
2013,04,27,15,31,11.30
2013,04,27,15,32,11.30
2013,04,27,15,33,11.30
2013,04,27,15,34,11.30
2013,04,27,15,35,11.30
2013,04,27,15,36,11.30
2013,04,27,15,37,11.30
2013,04,27,15,38,11.30
2013,04,27,15,39,11.30
2013,04,27,15,40,11.30
2013,04,27,15,41,11.30
2013,04,27,15,42,11.20
2013,04,27,15,43,11.20
2013,04,27,15,44,11.20
2013,04,27,15,45,11.20
2013,04,27,15,46,11.20
2013,04,27,15,47,11.20
2013,04,27,15,48,11.20
2013,04,27,15,49,11.10
2013,04,27,15,50,11.10
2013,04,27,15,51,11.10
2013,04,27,15,52,11.10
2013,04,27,15,53,11.10
2013,04,27,15,54,11.10
2013,04,27,15,55,11.10
2013,04,27,15,56,11.10
2013,04,27,15,57,11.20
2013,04,27,15,58,11.30
2013,04,27,15,59,11.30
2013,04,27,16,00,11.30
2013,04,27,16,01,11.30
2013,04,27,16,02,11.40
2013,04,27,16,03,11.40
2013,04,27,16,04,11.40
2013,04,27,16,05,11.40
2013,04,27,16,06,11.40
2013,04,27,16,07,11.40
2013,04,27,16,08,11.30
2013,04,27,16,09,11.30
2013,04,27,16,10,11.30
2013,04,27,16,11,11.30
2013,04,27,16,12,11.20
2013,04,27,16,13,11.20
2013,04,27,16,14,11.30
2013,04,27,16,15,11.30
2013,04,27,16,16,11.30
2013,04,27,16,17,11.30
2013,04,27,16,18,11.20
2013,04,27,16,19,11.20
2013,04,27,16,20,11.20
2013,04,27,16,21,11.20
2013,04,27,16,22,11.20
2013,04,27,16,23,11.20
2013,04,27,16,24,11.30
2013,04,27,16,25,11.30
2013,04,27,16,26,11.30
2013,04,27,16,27,11.40
2013,04,27,16,28,11.40
2013,04,27,16,29,11.40
2013,04,27,16,30,11.50
2013,04,27,16,31,11.50
2013,04,27,16,32,11.40
2013,04,27,16,33,11.40
2013,04,27,16,34,11.50
2013,04,27,16,35,11.50
2013,04,27,16,36,11.50
2013,04,27,16,37,11.50
2013,04,27,16,38,11.60
2013,04,27,16,39,11.50
2013,04,27,16,40,11.50
2013,04,27,16,41,11.50
2013,04,27,16,42,11.40
2013,04,27,16,43,11.40
2013,04,27,16,44,11.40
2013,04,27,16,45,11.40
2013,04,27,16,46,11.40
2013,04,27,16,47,11.40
2013,04,27,16,48,11.40
2013,04,27,16,49,11.40
2013,04,27,16,50,11.30
2013,04,27,16,51,11.30
2013,04,27,16,52,11.30
2013,04,27,16,53,11.30
2013,04,27,16,54,11.30
2013,04,27,16,55,11.30
2013,04,27,16,56,11.30
2013,04,27,16,57,11.30
2013,04,27,16,58,11.30
2013,04,27,16,59,11.30
2013,04,27,17,00,11.30
2013,04,27,17,01,11.30
2013,04,27,17,02,11.30
2013,04,27,17,03,11.30
2013,04,27,17,04,11.30
2013,04,27,17,05,11.30
2013,04,27,17,06,11.30
2013,04,27,17,07,11.30
2013,04,27,17,08,11.30
2013,04,27,17,09,11.30
2013,04,27,17,10,11.40
2013,04,27,17,11,11.40
2013,04,27,17,12,11.40
2013,04,27,17,13,11.40
2013,04,27,17,14,11.40
2013,04,27,17,15,11.40
2013,04,27,17,16,11.40
2013,04,27,17,17,11.40
2013,04,27,17,18,11.40
2013,04,27,17,19,11.40
2013,04,27,17,20,11.40
2013,04,27,17,21,11.30